Location: Balsareny
(41.8670°N, 1.8830°E)
Time: 07:55:05
(UTC+02:00)

X-37B - Pass Details

Date: 20 June 2021
Orbit: 383 x 392 km, 45.0° (Epoch: 01 July)

Event Time Altitude Azimuth Distance (km) Brightness Sun altitude
Rises 05:34:55 0° 288° (WNW) 2,260 4.1 -7.1°
Reaches altitude 10° 05:37:02 10° 282° (WNW) 1,406 3.1 -6.8°
Maximum altitude 05:40:05 47° 207° (SSW) 519 0.8 -6.4°
Drops below altitude 10° 05:43:08 10° 132° (SE) 1,404 3.5 -6.0°
Sets 05:45:14 0° 126° (SE) 2,257 4.7 -5.7°
